Back to catalog

COSMOS 1275

AliveNavigationPO
NORAD 12504·PAYLOAD·🇷🇺 Russia

Launched Jun 4, 1981 from Plesetsk Cosmodrome

Loading…

Next Passes (next 24 hours)

TLE

FreshSource: Space-Track

Epoch: Sep 14, 2026, 13:33 UTC

1 12504U 81053A   26257.56484354  .00000044  00000-0  30955-4 0  9994
2 12504  82.9627 199.4618 0038369 290.7032  69.0013 13.74538283271551

Track COSMOS 1275 in real time with AllMySat

Download on the App Store